FENGYUN 1C DEB

Satellite information

Favourite Embed

Satellite Type and Status

DEBRISIN ORBIT

Key statistics

Satellite FENGYUN 1C DEB at a glance.

Uptime

9673

Days in orbit

Revolutions

≈ 13.9

Per day

Orbit

SSO

Sun Synchronous Orbit

Inclination

99.3

Latest

Satellite identification and parameters

Extended collection of information and parameters for FENGYUN 1C DEB.

Object identification

Identified? True

Debris? True

Object name: FENGYUN 1C DEB

International designator: 1999-025BT

Object number (NORAD): 29777

Object ID (CCSDS): 29777

Country: PEOPLES REPUBLIC OF CHINA (PRC)

Current information (Y/N): Y

RCS size: SMALL

Orbital parameters

Period: 103.442 minutes

Inclination: 99.2899 deg

SMA: 7299.486 km

Apoapsis: 988.803 km

Periapsis: 853.898 km

RAAN: 1.2075 deg

Eccentricy: 0.0092407

Argument of periapsis: 325.0358 deg

Mean anomaly: 100.7322 deg

Mean motion: 13.92080582 rev/day

Mean motion (dot): 0.00000125 rev/day2

B* drag term: 0.00012911 1/REarth

Two-line elements (TLE)

Creation date: Oct. 31, 2025, 6:36 p.m.

Reference frame: TEME

Reference center: EARTH

Epoch: Oct. 31, 2025, 9:53 a.m. UTC

TLE line 0: 0 FENGYUN 1C DEB

TLE line 1: 1 29777U 99025BT 25304.41187712 .00000125 00000-0 12911-3 0 9997

TLE line 2: 2 29777 99.2899 1.2075 0092407 325.0358 100.7322 13.92080582954521

Live tracking on map

Real-time ground track for satellite FENGYUN 1C DEB.

In-orbit conjunctions

A list of the most updated potential collisions computed for object FENGYUN 1C DEB.

Target Orbit TCA Probability of collision Miss distance Type
DMSP 5D-2 F13 DEB SSO 2024-06-02 03:12:29 0.0002392384 202.0 (m) DEBRIS

Associated space launch

Chinese polar orbiting meteorological satellite

FENGYUN 1C DEB was lifted into orbit during the mission ‘Long March 4B | Feng Yun 1C’, on board a Long March 4B space rocket.

The launch took place on May 10, 1999, 1:33 a.m. from Launch Complex 7.

For more information about the launch, click the button.

Launch to space Long March 4B | Feng Yun 1C
Long March 4B | Feng Yun 1C

Agency: N/A

Status: Launch Successful

Launch date: May 10, 1999, 1:33 a.m. UTC

Rocket: Long March 4B

Launch pad: Launch Complex 7

Location: Taiyuan Satellite Launch Center, People's Republic of China

...

Latest news about this satellite

There are no fresh news available about this satellite. Check back as we update our databases every day.


Newsletter sign-up

Weekly statistics, charts and insights to help you stay on top of the space industry.